CW2989 Weather Reports


Display with metric or nautical units.
time (UTC)temp
F
wind
direction
speed
MPH
gust
MPH
rain 1hr
in
rain 24hr
in
rain mn
in
humidity
%
barometer
mb
20201022225214 85 286 5.0 13.0 0.00 0.00 0.00 57 994.5
20201022224149 85 232 4.0 13.0 0.00 0.00 0.00 56 994.5
20201022223157 85 257 4.0 11.0 0.00 0.00 0.00 58 994.5
20201022222135 85 264 5.0 12.0 0.00 0.00 0.00 57 994.5
20201022221106 85 224 3.0 11.0 0.00 0.00 0.00 58 994.5
20201022220117 85 250 3.0 10.0 0.00 0.00 0.00 59 994.5
20201022215122 85 238 3.0 11.0 0.00 0.00 0.00 58 994.5
20201022214108 86 221 5.0 13.0 0.00 0.00 0.00 56 994.5
20201022213105 86 256 5.0 13.0 0.00 0.00 0.00 54 994.5
20201022212041 86 240 4.0 14.0 0.00 0.00 0.00 56 994.5
20201022211039 87 213 4.0 14.0 0.00 0.00 0.00 56 994.6
20201022210021 86 261 5.0 15.0 0.00 0.00 0.00 55 994.6
20201022205031 86 230 5.0 15.0 0.00 0.00 0.00 57 994.6
20201022204020 86 225 4.0 11.0 0.00 0.00 0.00 58 994.9
20201022203024 86 221 4.0 11.0 0.00 0.00 0.00 59 994.9
20201022202010 85 235 4.0 13.0 0.00 0.00 0.00 60 995.0
20201022201023 84 229 4.0 13.0 0.00 0.00 0.00 60 995.1
20201022200032 84 248 4.0 11.0 0.00 0.00 0.00 62 995.1
20201022194951 84 263 4.0 11.0 0.00 0.00 0.00 61 995.5
20201022193932 84 277 4.0 10.0 0.00 0.00 0.00 62 995.6
20201022192908 83 249 4.0 10.0 0.00 0.00 0.00 63 995.9
20201022191846 84 256 4.0 10.0 0.00 0.00 0.00 63 995.9
20201022190818 83 249 3.0 10.0 0.00 0.00 0.00 65 996.2
20201022185809 83 271 3.0 10.0 0.00 0.00 0.00 63 996.7
20201022184803 83 301 3.0 11.0 0.00 0.00 0.00 64 996.7
20201022183758 83 248 4.0 14.0 0.00 0.00 0.00 67 997.0
20201022182751 83 249 4.0 14.0 0.00 0.00 0.00 64 997.3
20201022182346 83 252 4.0 12.0 0.00 0.00 0.00 65 997.3
20201022180822 82 230 3.0 9.0 0.00 0.00 0.00 67 997.7
20201022175829 82 293 3.0 12.0 0.00 0.00 0.00 67 997.8
20201022174806 82 265 4.0 12.0 0.00 0.00 0.00 68 997.8
20201022173741 81 255 4.0 13.0 0.00 0.00 0.00 68 998.3
20201022172753 81 250 5.0 13.0 0.00 0.00 0.00 70 998.4
20201022171722 81 258 2.0 9.0 0.00 0.00 0.00 71 998.4
20201022170736 80 265 3.0 11.0 0.00 0.00 0.00 75 998.8
20201022165800 80 234 4.0 11.0 0.00 0.00 0.00 74 998.8
20201022164741 79 240 4.0 12.0 0.00 0.00 0.00 75 998.8
20201022163821 79 271 4.0 12.0 0.00 0.00 0.00 77 999.0
20201022162744 78 250 3.0 13.0 0.00 0.00 0.00 78 999.1
20201022161805 77 243 4.0 13.0 0.00 0.00 0.00 79 999.1
20201022160803 78 215 4.0 12.0 0.00 0.00 0.00 79 999.2
20201022155754 78 227 1.0 9.0 0.00 0.00 0.00 81 999.3
20201022154744 76 260 4.0 9.0 0.00 0.00 0.00 83 999.3
20201022153732 75 207 3.0 10.0 0.00 0.00 0.00 84 999.4
20201022152754 75 243 4.0 10.0 0.00 0.00 0.00 85 999.3
20201022151745 75 267 3.0 7.0 0.00 0.00 0.00 85 999.3
20201022150717 74 259 2.0 12.0 0.00 0.00 0.00 86 999.2
20201022145657 74 238 4.0 12.0 0.00 0.00 0.00 86 998.9
20201022144621 74 227 3.0 11.0 0.00 0.00 0.00 86 998.9
20201022143637 74 243 4.0 9.0 0.00 0.00 0.00 87 998.9
20201022142700 73 229 3.0 9.0 0.00 0.00 0.00 88 998.8
20201022141648 72 256 3.0 9.0 0.00 0.00 0.00 90 998.8
20201022140637 72 246 2.0 9.0 0.00 0.00 0.00 91 998.8
20201022135955 71 246 2.0 9.0 0.00 0.00 0.00 91 998.7
20201022134706 71 246 2.0 6.0 0.00 0.00 0.00 92 998.7
20201022133636 71 251 2.0 6.0 0.00 0.00 0.00 92 998.5
20201022132642 71 239 2.0 6.0 0.00 0.00 0.00 92 998.4
20201022131651 70 242 1.0 4.0 0.00 0.00 0.00 92 998.4
20201022130718 70 249 2.0 4.0 0.00 0.00 0.00 92 998.3
20201022125652 70 246 1.0 4.0 0.00 0.00 0.00 92 998.3
20201022124659 70 237 2.0 5.0 0.00 0.00 0.00 92 998.3
20201022123652 70 244 2.0 5.0 0.00 0.00 0.00 92 998.3
20201022122641 71 256 1.0 4.0 0.00 0.00 0.00 91 998.3
20201022121657 71 257 1.0 4.0 0.00 0.00 0.00 90 998.3
20201022120715 71 242 2.0 4.0 0.00 0.00 0.00 90 998.3
20201022115738 71 263 1.0 4.0 0.00 0.00 0.00 90 998.3
20201022114725 72 230 1.0 5.0 0.00 0.00 0.00 89 998.3
20201022113705 72 248 1.0 5.0 0.00 0.00 0.00 89 998.3
20201022112655 72 253 2.0 6.0 0.00 0.00 0.00 89 998.2
20201022111643 72 252 2.0 6.0 0.00 0.00 0.00 89 998.2
20201022110656 72 265 2.0 6.0 0.00 0.00 0.00 89 998.3
20201022105702 72 265 2.0 6.0 0.00 0.00 0.00 88 998.0
20201022104720 72 229 3.0 6.0 0.00 0.00 0.00 89 998.0
20201022103653 72 238 3.0 8.0 0.00 0.00 0.00 89 998.2
20201022102633 72 239 2.0 8.0 0.00 0.00 0.00 89 998.2
20201022101607 72 230 2.0 8.0 0.00 0.00 0.00 89 998.2
20201022100602 72 244 2.0 9.0 0.00 0.00 0.00 90 998.3
20201022095542 71 229 2.0 9.0 0.00 0.00 0.00 90 998.1
20201022094602 71 240 2.0 8.0 0.00 0.00 0.00 90 998.1
20201022093548 72 253 3.0 9.0 0.00 0.00 0.00 90 998.1
20201022092547 71 275 3.0 9.0 0.00 0.00 0.00 90 998.2
20201022091540 71 212 3.0 9.0 0.00 0.00 0.00 90 998.2
20201022090511 71 239 2.0 6.0 0.00 0.00 0.00 91 998.1
20201022085509 71 257 2.0 8.0 0.00 0.00 0.00 91 997.9
20201022084458 71 238 3.0 12.0 0.00 0.00 0.00 90 997.9
20201022083510 72 260 3.0 12.0 0.00 0.00 0.00 90 998.1
20201022082455 72 252 3.0 9.0 0.00 0.00 0.00 89 998.3
20201022081440 72 232 4.0 9.0 0.00 0.00 0.00 89 998.3
20201022080424 72 238 3.0 11.0 0.00 0.00 0.00 89 998.3
20201022075433 72 269 5.0 11.0 0.00 0.00 0.00 88 998.3
20201022074425 73 251 4.0 12.0 0.00 0.00 0.00 89 998.3
20201022073414 73 250 4.0 12.0 0.00 0.00 0.00 89 998.3
20201022072433 73 315 3.0 9.0 0.00 0.00 0.00 90 998.3
20201022071452 73 243 4.0 9.0 0.00 0.00 0.00 89 998.3
20201022070454 73 286 3.0 11.0 0.00 0.00 0.00 89 998.3
20201022065518 73 232 2.0 11.0 0.00 0.00 0.00 89 998.3
20201022064537 73 252 3.0 9.0 0.00 0.00 0.00 89 998.3
20201022063542 73 276 3.0 9.0 0.00 0.00 0.00 88 998.3
20201022062554 73 248 2.0 6.0 0.00 0.00 0.00 87 998.3
20201022061523 72 221 2.0 8.0 0.00 0.00 0.00 86 998.3
20201022060454 72 250 2.0 8.0 0.00 0.00 0.00 85 998.4
20201022055441 73 241 3.0 6.0 0.00 0.00 0.00 84 998.4
20201022054419 73 209 3.0 6.0 0.00 0.00 0.00 83 998.4
20201022053426 73 244 2.0 7.0 0.00 0.00 0.00 82 998.6
20201022052436 73 248 3.0 7.0 0.00 0.00 0.00 82 998.8
20201022051437 73 230 2.0 4.0 0.00 0.00 0.00 81 998.8
20201022050413 73 238 2.0 6.0 0.00 0.00 0.00 79 998.9
20201022045356 74 255 3.0 5.0 0.00 0.00 0.00 79 998.9
20201022044326 74 228 2.0 4.0 0.00 0.00 0.00 78 998.9
20201022043303 74 221 2.0 6.0 0.00 0.00 0.00 78 998.9
20201022042305 74 254 2.0 6.0 0.00 0.00 0.00 77 998.9
20201022041325 74 226 2.0 5.0 0.00 0.00 0.00 77 999.0
20201022040304 74 267 1.0 5.0 0.00 0.00 0.00 77 999.0
20201022035304 74 234 1.0 3.0 0.00 0.00 0.00 76 999.0
20201022034316 75 234 2.0 4.0 0.00 0.00 0.00 76 999.1
20201022033333 75 238 1.0 4.0 0.00 0.00 0.00 75 999.1
20201022032344 75 245 2.0 4.0 0.00 0.00 0.00 75 999.1
20201022031355 75 237 1.0 4.0 0.00 0.00 0.00 74 999.0
20201022030328 75 248 1.0 3.0 0.00 0.00 0.00 74 999.0
20201022025321 75 238 1.0 4.0 0.00 0.00 0.00 73 998.9
20201022024254 76 195 1.0 6.0 0.00 0.00 0.00 73 998.9
20201022023233 75 241 1.0 6.0 0.00 0.00 0.00 72 998.9
20201022022226 76 240 0.0 5.0 0.00 0.00 0.00 71 998.9
20201022021201 76 239 1.0 5.0 0.00 0.00 0.00 70 998.8
20201022020228 76 218 1.0 4.0 0.00 0.00 0.00 69 998.8
20201022015221 77 236 1.0 4.0 0.00 0.00 0.00 68 998.8
20201022014206 77 252 1.0 4.0 0.00 0.00 0.00 67 998.6
20201022013222 77 243 1.0 3.0 0.00 0.00 0.00 66 998.6
20201022012203 77 240 0.0 2.0 0.00 0.00 0.00 65 998.4
20201022011218 77 238 0.0 1.0 0.00 0.00 0.00 65 998.3
20201022010200 78 238 0.0 0.0 0.00 0.00 0.00 63 998.3
20201022005217 79 238 0.0 3.0 0.00 0.00 0.00 62 998.2
20201022004234 80 237 1.0 6.0 0.00 0.00 0.00 61 998.0
20201022003212 80 236 2.0 6.0 0.00 0.00 0.00 60 998.0
20201022002216 80 253 0.0 3.0 0.00 0.00 0.00 60 997.8
20201022001222 80 244 0.0 3.0 0.00 0.00 0.00 60 997.8
20201022000207 81 235 0.0 3.0 0.00 0.00 0.00 58 997.8
20201021235159 82 247 1.0 3.0 0.00 0.00 0.00 58 997.7
20201021234145 82 238 1.0 4.0 0.00 0.00 0.00 57 997.8
20201021233139 83 244 2.0 6.0 0.00 0.00 0.00 56 997.8
20201021232110 83 223 3.0 10.0 0.00 0.00 0.00 55 997.7
20201021231110 84 253 4.0 10.0 0.00 0.00 0.00 54 997.7
20201021230036 83 248 1.0 8.0 0.00 0.00 0.00 57 997.7